| time (UTC) | temp C | wind direction | speed KPH | gust KPH | rain 1hr cm | rain 24hr cm | rain mn cm | humidity % | barometer mb |
| 20260831235457 | 25 | 228 | 3.2 | 6.4 | 0.00 | 0.00 | 0.00 | 70 | 1015.3 |
| 20260831234952 | 24 | 210 | 4.8 | 6.4 | 0.00 | 0.00 | 0.00 | 72 | 1015.6 |
| 20260831234447 | 24 | 272 | 4.8 | 9.7 | 0.00 | 0.00 | 0.00 | 72 | 1015.6 |
| 20260831233942 | 25 | 241 | 4.8 | 9.7 | 0.00 | 0.00 | 0.00 | 72 | 1015.3 |
| 20260831233437 | 25 | 264 | 4.8 | 11.3 | 0.00 | 0.00 | 0.00 | 72 | 1015.6 |
| 20260831232933 | 25 | 215 | 3.2 | 9.7 | 0.00 | 0.00 | 0.00 | 71 | 1015.6 |
| 20260831232429 | 25 | 297 | 3.2 | 4.8 | 0.00 | 0.00 | 0.00 | 70 | 1015.3 |
| 20260831231924 | 25 | 320 | 4.8 | 9.7 | 0.00 | 0.00 | 0.00 | 72 | 1015.3 |
| 20260831231420 | 25 | 283 | 0.0 | 4.8 | 0.00 | 0.00 | 0.00 | 72 | 1015.3 |
| 20260831230916 | 25 | 267 | 3.2 | 9.7 | 0.00 | 0.00 | 0.00 | 72 | 1014.9 |
| 20260831230411 | 25 | 318 | 1.6 | 4.8 | 0.00 | 0.00 | 0.00 | 71 | 1015.3 |
| 20260831225905 | 25 | 223 | 4.8 | 11.3 | 0.00 | 0.00 | 0.00 | 72 | 1015.6 |
| 20260831225401 | 25 | 255 | 4.8 | 6.4 | 0.00 | 0.00 | 0.00 | 71 | 1015.3 |
| 20260831224855 | 25 | 27 | 0.0 | 12.9 | 0.00 | 0.00 | 0.00 | 72 | 1015.6 |
| 20260831224350 | 25 | 207 | 8.0 | 9.7 | 0.00 | 0.00 | 0.00 | 73 | 1015.3 |
| 20260831223850 | 25 | 196 | 4.8 | 12.9 | 0.00 | 0.00 | 0.00 | 73 | 1015.6 |
| 20260831223346 | 26 | 264 | 4.8 | 6.4 | 0.00 | 0.00 | 0.00 | 70 | 1015.6 |
| 20260831222843 | 25 | 262 | 4.8 | 6.4 | 0.00 | 0.00 | 0.00 | 71 | 1015.6 |
| 20260831222338 | 25 | 283 | 6.4 | 11.3 | 0.00 | 0.00 | 0.00 | 73 | 1015.6 |
| 20260831221833 | 25 | 281 | 6.4 | 9.7 | 0.00 | 0.00 | 0.00 | 72 | 1016.0 |
| 20260831221329 | 25 | 244 | 8.0 | 11.3 | 0.00 | 0.00 | 0.00 | 72 | 1016.0 |
| 20260831220824 | 25 | 317 | 3.2 | 6.4 | 0.00 | 0.00 | 0.00 | 71 | 1016.0 |
| 20260831220319 | 25 | 254 | 3.2 | 11.3 | 0.00 | 0.00 | 0.00 | 72 | 1016.0 |
| 20260831215814 | 25 | 248 | 6.4 | 12.9 | 0.00 | 0.00 | 0.00 | 72 | 1016.0 |
| 20260831215310 | 25 | 264 | 8.0 | 11.3 | 0.00 | 0.00 | 0.00 | 72 | 1016.0 |
| 20260831214807 | 25 | 231 | 6.4 | 11.3 | 0.00 | 0.00 | 0.00 | 71 | 1016.0 |
| 20260831214304 | 25 | 225 | 3.2 | 11.3 | 0.00 | 0.00 | 0.00 | 71 | 1016.0 |
| 20260831213759 | 26 | 221 | 3.2 | 12.9 | 0.00 | 0.00 | 0.00 | 70 | 1016.0 |
| 20260831213255 | 26 | 216 | 4.8 | 6.4 | 0.00 | 0.00 | 0.00 | 68 | 1016.0 |
| 20260831212750 | 25 | 287 | 3.2 | 6.4 | 0.00 | 0.00 | 0.00 | 72 | 1016.0 |
| 20260831212247 | 26 | 327 | 3.2 | 9.7 | 0.00 | 0.00 | 0.00 | 71 | 1016.0 |
| 20260831211744 | 26 | 299 | 3.2 | 12.9 | 0.00 | 0.00 | 0.00 | 70 | 1016.3 |
| 20260831211240 | 26 | 266 | 3.2 | 11.3 | 0.00 | 0.00 | 0.00 | 70 | 1016.3 |
| 20260831210735 | 26 | 162 | 6.4 | 12.9 | 0.00 | 0.00 | 0.00 | 69 | 1016.3 |
| 20260831210231 | 26 | 274 | 4.8 | 11.3 | 0.00 | 0.00 | 0.00 | 69 | 1016.3 |
| 20260831205730 | 26 | 309 | 3.2 | 9.7 | 0.00 | 0.00 | 0.00 | 70 | 1016.3 |
| 20260831205226 | 26 | 213 | 3.2 | 11.3 | 0.00 | 0.00 | 0.00 | 70 | 1016.0 |
| 20260831204721 | 26 | 234 | 4.8 | 9.7 | 0.00 | 0.00 | 0.00 | 69 | 1016.6 |
| 20260831204220 | 25 | 281 | 3.2 | 9.7 | 0.00 | 0.00 | 0.00 | 70 | 1016.0 |
| 20260831203714 | 26 | 295 | 3.2 | 9.7 | 0.00 | 0.00 | 0.00 | 70 | 1016.3 |
| 20260831203213 | 26 | 256 | 6.4 | 11.3 | 0.00 | 0.00 | 0.00 | 70 | 1016.3 |
| 20260831202712 | 26 | 238 | 3.2 | 12.9 | 0.00 | 0.00 | 0.00 | 70 | 1016.6 |
| 20260831202207 | 26 | 293 | 1.6 | 11.3 | 0.00 | 0.00 | 0.00 | 69 | 1016.3 |
| 20260831201706 | 26 | 276 | 3.2 | 6.4 | 0.00 | 0.00 | 0.00 | 69 | 1016.3 |
| 20260831201201 | 25 | 212 | 4.8 | 12.9 | 0.00 | 0.00 | 0.00 | 70 | 1016.3 |
| 20260831200657 | 26 | 272 | 4.8 | 12.9 | 0.00 | 0.00 | 0.00 | 69 | 1016.6 |
| 20260831200156 | 26 | 230 | 4.8 | 6.4 | 0.00 | 0.00 | 0.00 | 69 | 1016.6 |
| 20260831195652 | 26 | 147 | 1.6 | 9.7 | 0.00 | 0.00 | 0.00 | 69 | 1016.6 |
| 20260831195147 | 26 | 319 | 3.2 | 4.8 | 0.00 | 0.00 | 0.00 | 69 | 1016.3 |
| 20260831194642 | 26 | 240 | 4.8 | 9.7 | 0.00 | 0.00 | 0.00 | 69 | 1016.3 |
| 20260831194138 | 26 | 216 | 3.2 | 4.8 | 0.00 | 0.00 | 0.00 | 69 | 1016.3 |
| 20260831193632 | 26 | 224 | 4.8 | 9.7 | 0.00 | 0.00 | 0.00 | 68 | 1017.0 |
| 20260831193127 | 26 | 316 | 1.6 | 6.4 | 0.00 | 0.00 | 0.00 | 68 | 1017.0 |
| 20260831192622 | 26 | 269 | 3.2 | 11.3 | 0.00 | 0.00 | 0.00 | 68 | 1016.6 |
| 20260831192118 | 26 | 338 | 3.2 | 4.8 | 0.00 | 0.00 | 0.00 | 69 | 1016.6 |
| 20260831191614 | 26 | 274 | 1.6 | 3.2 | 0.00 | 0.00 | 0.00 | 69 | 1016.6 |
| 20260831191109 | 26 | 214 | 3.2 | 4.8 | 0.00 | 0.00 | 0.00 | 68 | 1017.0 |
| 20260831190604 | 26 | 253 | 8.0 | 12.9 | 0.00 | 0.00 | 0.00 | 68 | 1016.6 |
| 20260831185559 | 26 | 319 | 4.8 | 9.7 | 0.00 | 0.00 | 0.00 | 67 | 1017.0 |
| 20260831185054 | 26 | 326 | 0.0 | 3.2 | 0.00 | 0.00 | 0.00 | 70 | 1016.6 |
| 20260831184554 | 26 | 307 | 3.2 | 9.7 | 0.00 | 0.00 | 0.00 | 69 | 1016.6 |
| 20260831184050 | 26 | 354 | 1.6 | 6.4 | 0.00 | 0.00 | 0.00 | 70 | 1016.6 |
| 20260831183549 | 25 | 286 | 4.8 | 6.4 | 0.00 | 0.00 | 0.00 | 71 | 1016.6 |
| 20260831183048 | 25 | 308 | 3.2 | 11.3 | 0.00 | 0.00 | 0.00 | 72 | 1016.6 |
| 20260831182543 | 25 | 234 | 4.8 | 9.7 | 0.00 | 0.00 | 0.00 | 72 | 1016.6 |
| 20260831182039 | 26 | 332 | 1.6 | 9.7 | 0.00 | 0.00 | 0.00 | 72 | 1017.0 |
| 20260831181538 | 25 | 296 | 1.6 | 4.8 | 0.00 | 0.00 | 0.00 | 72 | 1017.0 |
| 20260831181038 | 26 | 332 | 3.2 | 6.4 | 0.00 | 0.00 | 0.00 | 70 | 1017.0 |
| 20260831180534 | 25 | 274 | 1.6 | 9.7 | 0.00 | 0.00 | 0.00 | 72 | 1017.0 |
| 20260831180028 | 25 | 273 | 3.2 | 4.8 | 0.00 | 0.00 | 0.00 | 72 | 1016.6 |
| 20260831175523 | 25 | 224 | 1.6 | 6.4 | 0.00 | 0.00 | 0.00 | 73 | 1016.6 |
| 20260831175020 | 25 | 287 | 3.2 | 4.8 | 0.00 | 0.00 | 0.00 | 72 | 1017.0 |
| 20260831174515 | 25 | 223 | 3.2 | 4.8 | 0.00 | 0.00 | 0.00 | 71 | 1017.0 |
| 20260831174014 | 25 | 281 | 3.2 | 6.4 | 0.00 | 0.00 | 0.00 | 72 | 1016.6 |
| 20260831173513 | 25 | 335 | 1.6 | 6.4 | 0.00 | 0.00 | 0.00 | 73 | 1017.0 |
| 20260831173010 | 25 | 307 | 3.2 | 9.7 | 0.00 | 0.00 | 0.00 | 73 | 1016.6 |
| 20260831172504 | 25 | 344 | 1.6 | 4.8 | 0.00 | 0.00 | 0.00 | 73 | 1017.0 |
| 20260831171959 | 25 | 254 | 6.4 | 9.7 | 0.00 | 0.00 | 0.00 | 73 | 1017.0 |
| 20260831171455 | 25 | 306 | 4.8 | 9.7 | 0.00 | 0.00 | 0.00 | 73 | 1016.6 |
| 20260831170952 | 25 | 245 | 3.2 | 4.8 | 0.00 | 0.00 | 0.00 | 73 | 1017.0 |
| 20260831170448 | 24 | 234 | 1.6 | 3.2 | 0.00 | 0.00 | 0.00 | 75 | 1016.6 |
| 20260831165944 | 24 | 331 | 3.2 | 4.8 | 0.00 | 0.00 | 0.00 | 75 | 1016.6 |
| 20260831165440 | 24 | 338 | 1.6 | 3.2 | 0.00 | 0.00 | 0.00 | 75 | 1016.6 |
| 20260831164937 | 23 | 301 | 1.6 | 3.2 | 0.00 | 0.00 | 0.00 | 77 | 1016.6 |
| 20260831164432 | 23 | 292 | 3.2 | 4.8 | 0.00 | 0.00 | 0.00 | 77 | 1016.6 |
| 20260831163927 | 24 | 123 | 3.2 | 9.7 | 0.00 | 0.00 | 0.00 | 75 | 1016.3 |
| 20260831163422 | 25 | 335 | 1.6 | 4.8 | 0.00 | 0.00 | 0.00 | 74 | 1016.3 |
| 20260831162921 | 24 | 10 | 0.0 | 3.2 | 0.00 | 0.00 | 0.00 | 73 | 1016.3 |
| 20260831162417 | 24 | 338 | 1.6 | 4.8 | 0.00 | 0.00 | 0.00 | 73 | 1016.3 |
| 20260831161915 | 24 | 351 | 0.0 | 1.6 | 0.00 | 0.00 | 0.00 | 73 | 1016.3 |
| 20260831161412 | 25 | 73 | 3.2 | 6.4 | 0.00 | 0.00 | 0.00 | 73 | 1016.3 |
| 20260831160907 | 25 | 82 | 1.6 | 3.2 | 0.00 | 0.00 | 0.00 | 72 | 1016.3 |
| 20260831160402 | 25 | 19 | 1.6 | 3.2 | 0.00 | 0.00 | 0.00 | 71 | 1016.6 |
| 20260831155857 | 25 | 1 | 1.6 | 3.2 | 0.00 | 0.00 | 0.00 | 69 | 1016.3 |
| 20260831155356 | 25 | 325 | 0.0 | 3.2 | 0.00 | 0.00 | 0.00 | 72 | 1016.3 |
| 20260831154852 | 26 | 351 | 0.0 | 3.2 | 0.00 | 0.00 | 0.00 | 69 | 1016.3 |
| 20260831154349 | 25 | 348 | 1.6 | 1.6 | 0.00 | 0.00 | 0.00 | 69 | 1016.3 |
| 20260831153846 | 25 | 306 | 0.0 | 1.6 | 0.00 | 0.00 | 0.00 | 69 | 1016.3 |
| 20260831153343 | 25 | 356 | 1.6 | 3.2 | 0.00 | 0.00 | 0.00 | 72 | 1016.3 |
| 20260831152839 | 25 | 352 | 0.0 | 3.2 | 0.00 | 0.00 | 0.00 | 71 | 1016.3 |
| 20260831152334 | 25 | 346 | 1.6 | 1.6 | 0.00 | 0.00 | 0.00 | 70 | 1016.3 |
| 20260831151829 | 25 | 347 | 0.0 | 0.0 | 0.00 | 0.00 | 0.00 | 71 | 1016.0 |
| 20260831151328 | 24 | 4 | 0.0 | 1.6 | 0.00 | 0.00 | 0.00 | 75 | 1016.3 |
| 20260831150824 | 25 | 330 | 0.0 | 1.6 | 0.00 | 0.00 | 0.00 | 73 | 1016.3 |
| 20260831150319 | 25 | 33 | 1.6 | 1.6 | 0.00 | 0.00 | 0.00 | 72 | 1016.0 |
| 20260831145818 | 25 | 359 | 0.0 | 0.0 | 0.00 | 0.00 | 0.00 | 74 | 1016.0 |
| 20260831145315 | 23 | 350 | 0.0 | 0.0 | 0.00 | 0.00 | 0.00 | 76 | 1016.0 |
| 20260831144810 | 23 | 349 | 0.0 | 1.6 | 0.00 | 0.00 | 0.00 | 77 | 1016.0 |
| 20260831144306 | 23 | 3 | 1.6 | 1.6 | 0.00 | 0.00 | 0.00 | 78 | 1016.0 |
| 20260831143806 | 22 | 3 | 0.0 | 1.6 | 0.00 | 0.00 | 0.00 | 78 | 1016.0 |
| 20260831143301 | 22 | 2 | 1.6 | 1.6 | 0.00 | 0.00 | 0.00 | 79 | 1016.0 |
| 20260831142756 | 21 | 356 | 0.0 | 1.6 | 0.00 | 0.00 | 0.00 | 81 | 1016.0 |
| 20260831142252 | 21 | 351 | 0.0 | 0.0 | 0.00 | 0.00 | 0.00 | 85 | 1016.0 |
| 20260831141751 | 20 | 358 | 0.0 | 0.0 | 0.00 | 0.00 | 0.00 | 88 | 1015.6 |
| 20260831141251 | 20 | 348 | 0.0 | 0.0 | 0.00 | 0.00 | 0.00 | 90 | 1015.6 |
| 20260831140746 | 20 | 347 | 0.0 | 0.0 | 0.00 | 0.00 | 0.00 | 90 | 1015.6 |
| 20260831140241 | 19 | 342 | 0.0 | 0.0 | 0.00 | 0.00 | 0.00 | 90 | 1015.6 |
| 20260831135738 | 18 | 345 | 0.0 | 0.0 | 0.00 | 0.00 | 0.00 | 90 | 1015.3 |
| 20260831135234 | 18 | 346 | 0.0 | 0.0 | 0.00 | 0.00 | 0.00 | 90 | 1015.3 |
| 20260831134729 | 18 | 341 | 0.0 | 0.0 | 0.00 | 0.00 | 0.00 | 90 | 1015.6 |
| 20260831134226 | 18 | 338 | 0.0 | 0.0 | 0.00 | 0.00 | 0.00 | 90 | 1015.3 |
| 20260831133725 | 18 | 330 | 0.0 | 0.0 | 0.00 | 0.00 | 0.00 | 90 | 1014.9 |
| 20260831133219 | 18 | 340 | 0.0 | 0.0 | 0.00 | 0.00 | 0.00 | 90 | 1014.9 |
| 20260831132715 | 18 | 338 | 0.0 | 0.0 | 0.00 | 0.00 | 0.00 | 90 | 1014.9 |
| 20260831132214 | 18 | 341 | 0.0 | 0.0 | 0.00 | 0.00 | 0.00 | 90 | 1014.9 |
| 20260831131709 | 18 | 336 | 0.0 | 0.0 | 0.00 | 0.00 | 0.00 | 90 | 1014.9 |
| 20260831131206 | 18 | 333 | 0.0 | 0.0 | 0.00 | 0.00 | 0.00 | 90 | 1015.3 |
| 20260831130700 | 18 | 341 | 0.0 | 0.0 | 0.00 | 0.00 | 0.00 | 90 | 1014.9 |
| 20260831130156 | 18 | 335 | 0.0 | 0.0 | 0.00 | 0.00 | 0.00 | 90 | 1014.9 |
| 20260831125654 | 18 | 338 | 0.0 | 0.0 | 0.00 | 0.00 | 0.00 | 90 | 1014.9 |
| 20260831125150 | 18 | 341 | 0.0 | 0.0 | 0.00 | 0.00 | 0.00 | 90 | 1014.9 |
| 20260831124645 | 18 | 338 | 0.0 | 0.0 | 0.00 | 0.00 | 0.00 | 90 | 1014.9 |
| 20260831124141 | 18 | 334 | 0.0 | 0.0 | 0.00 | 0.00 | 0.00 | 90 | 1014.9 |
| 20260831123636 | 18 | 341 | 0.0 | 0.0 | 0.00 | 0.00 | 0.00 | 90 | 1014.9 |
| 20260831123134 | 18 | 341 | 0.0 | 0.0 | 0.00 | 0.00 | 0.00 | 90 | 1014.9 |
| 20260831122634 | 18 | 342 | 0.0 | 0.0 | 0.00 | 0.00 | 0.00 | 90 | 1014.9 |
| 20260831122131 | 19 | 344 | 0.0 | 0.0 | 0.00 | 0.00 | 0.00 | 90 | 1014.9 |
| 20260831121630 | 18 | 338 | 0.0 | 0.0 | 0.00 | 0.00 | 0.00 | 90 | 1014.9 |
| 20260831121126 | 18 | 338 | 0.0 | 0.0 | 0.00 | 0.00 | 0.00 | 90 | 1014.9 |
| 20260831120621 | 19 | 338 | 0.0 | 0.0 | 0.00 | 0.00 | 0.00 | 90 | 1014.9 |
| 20260831120116 | 19 | 339 | 0.0 | 0.0 | 0.00 | 0.00 | 0.00 | 90 | 1014.9 |
| 20260831115612 | 19 | 342 | 0.0 | 0.0 | 0.00 | 0.00 | 0.00 | 90 | 1014.9 |
| 20260831115107 | 19 | 340 | 0.0 | 0.0 | 0.00 | 0.00 | 0.00 | 90 | 1014.9 |
| 20260831114606 | 19 | 340 | 0.0 | 0.0 | 0.00 | 0.00 | 0.00 | 90 | 1014.9 |
| 20260831114101 | 19 | 339 | 0.0 | 0.0 | 0.00 | 0.00 | 0.00 | 90 | 1014.9 |
| 20260831113600 | 19 | 340 | 0.0 | 0.0 | 0.00 | 0.00 | 0.00 | 90 | 1014.9 |
| 20260831113056 | 19 | 340 | 0.0 | 0.0 | 0.00 | 0.00 | 0.00 | 89 | 1014.9 |
| 20260831112555 | 19 | 341 | 0.0 | 0.0 | 0.00 | 0.00 | 0.00 | 89 | 1014.9 |
| 20260831112050 | 19 | 340 | 0.0 | 0.0 | 0.00 | 0.00 | 0.00 | 89 | 1014.9 |
| 20260831111547 | 19 | 338 | 0.0 | 0.0 | 0.00 | 0.00 | 0.00 | 89 | 1014.9 |
| 20260831111042 | 19 | 341 | 0.0 | 0.0 | 0.00 | 0.00 | 0.00 | 89 | 1014.9 |
| 20260831110537 | 19 | 339 | 0.0 | 0.0 | 0.00 | 0.00 | 0.00 | 89 | 1014.9 |
| 20260831110032 | 20 | 337 | 0.0 | 0.0 | 0.00 | 0.00 | 0.00 | 89 | 1014.9 |
| 20260831105531 | 19 | 338 | 0.0 | 0.0 | 0.00 | 0.00 | 0.00 | 88 | 1014.6 |
| 20260831105026 | 19 | 341 | 0.0 | 0.0 | 0.00 | 0.00 | 0.00 | 88 | 1014.9 |
| 20260831104523 | 19 | 342 | 0.0 | 0.0 | 0.00 | 0.00 | 0.00 | 88 | 1014.9 |
| 20260831104018 | 19 | 340 | 0.0 | 0.0 | 0.00 | 0.00 | 0.00 | 88 | 1014.9 |
| 20260831103513 | 20 | 349 | 0.0 | 0.0 | 0.00 | 0.00 | 0.00 | 88 | 1014.9 |
| 20260831103009 | 20 | 339 | 0.0 | 0.0 | 0.00 | 0.00 | 0.00 | 87 | 1014.9 |
| 20260831102503 | 20 | 340 | 0.0 | 0.0 | 0.00 | 0.00 | 0.00 | 87 | 1015.3 |
| 20260831101958 | 20 | 342 | 0.0 | 0.0 | 0.00 | 0.00 | 0.00 | 87 | 1014.9 |
| 20260831101453 | 20 | 347 | 0.0 | 0.0 | 0.00 | 0.00 | 0.00 | 87 | 1014.9 |
| 20260831100949 | 20 | 336 | 0.0 | 0.0 | 0.00 | 0.00 | 0.00 | 87 | 1014.9 |
| 20260831100445 | 20 | 343 | 0.0 | 0.0 | 0.00 | 0.00 | 0.00 | 86 | 1014.9 |
| 20260831095940 | 20 | 346 | 0.0 | 0.0 | 0.00 | 0.00 | 0.00 | 86 | 1014.9 |
| 20260831095439 | 20 | 339 | 0.0 | 0.0 | 0.00 | 0.00 | 0.00 | 86 | 1014.9 |
| 20260831094934 | 20 | 339 | 0.0 | 0.0 | 0.00 | 0.00 | 0.00 | 86 | 1014.9 |
| 20260831094430 | 20 | 339 | 0.0 | 0.0 | 0.00 | 0.00 | 0.00 | 86 | 1014.9 |
| 20260831093926 | 20 | 331 | 0.0 | 0.0 | 0.00 | 0.00 | 0.00 | 85 | 1014.9 |
| 20260831093420 | 20 | 343 | 0.0 | 0.0 | 0.00 | 0.00 | 0.00 | 84 | 1014.9 |
| 20260831092917 | 21 | 342 | 0.0 | 0.0 | 0.00 | 0.00 | 0.00 | 84 | 1014.9 |
| 20260831092413 | 21 | 341 | 0.0 | 0.0 | 0.00 | 0.00 | 0.00 | 84 | 1014.9 |
| 20260831091908 | 21 | 338 | 0.0 | 1.6 | 0.00 | 0.00 | 0.00 | 84 | 1014.9 |
| 20260831091403 | 21 | 338 | 0.0 | 1.6 | 0.00 | 0.00 | 0.00 | 83 | 1014.9 |
| 20260831090858 | 21 | 340 | 0.0 | 0.0 | 0.00 | 0.00 | 0.00 | 83 | 1014.9 |
| 20260831090354 | 21 | 306 | 1.6 | 1.6 | 0.00 | 0.00 | 0.00 | 83 | 1014.9 |
| 20260831085850 | 21 | 294 | 0.0 | 0.0 | 0.00 | 0.00 | 0.00 | 82 | 1014.9 |
| 20260831085344 | 21 | 340 | 0.0 | 1.6 | 0.00 | 0.00 | 0.00 | 82 | 1014.9 |
| 20260831084839 | 21 | 323 | 1.6 | 3.2 | 0.00 | 0.00 | 0.00 | 81 | 1014.9 |
| 20260831084335 | 21 | 223 | 1.6 | 1.6 | 0.00 | 0.00 | 0.00 | 81 | 1014.9 |
| 20260831083831 | 21 | 331 | 1.6 | 1.6 | 0.00 | 0.00 | 0.00 | 81 | 1014.9 |
| 20260831083326 | 21 | 322 | 0.0 | 4.8 | 0.00 | 0.00 | 0.00 | 81 | 1014.9 |
| 20260831082825 | 21 | 238 | 3.2 | 3.2 | 0.00 | 0.00 | 0.00 | 81 | 1014.9 |
| 20260831082320 | 21 | 45 | 0.0 | 3.2 | 0.00 | 0.00 | 0.00 | 81 | 1014.9 |
| 20260831081816 | 21 | 346 | 0.0 | 1.6 | 0.00 | 0.00 | 0.00 | 80 | 1014.9 |
| 20260831081311 | 21 | 336 | 0.0 | 3.2 | 0.00 | 0.00 | 0.00 | 80 | 1014.9 |
| 20260831080807 | 21 | 349 | 0.0 | 1.6 | 0.00 | 0.00 | 0.00 | 78 | 1014.9 |
| 20260831080301 | 21 | 14 | 1.6 | 1.6 | 0.00 | 0.00 | 0.00 | 78 | 1014.9 |
| 20260831075757 | 21 | 345 | 0.0 | 1.6 | 0.00 | 0.00 | 0.00 | 78 | 1014.9 |
| 20260831075252 | 21 | 21 | 0.0 | 1.6 | 0.00 | 0.00 | 0.00 | 78 | 1014.9 |
| 20260831074752 | 21 | 7 | 0.0 | 3.2 | 0.00 | 0.00 | 0.00 | 78 | 1014.9 |
| 20260831074246 | 21 | 16 | 1.6 | 3.2 | 0.00 | 0.00 | 0.00 | 78 | 1014.9 |
| 20260831073742 | 20 | 352 | 1.6 | 3.2 | 0.00 | 0.00 | 0.00 | 79 | 1014.6 |
| 20260831073241 | 20 | 2 | 1.6 | 1.6 | 0.00 | 0.00 | 0.00 | 79 | 1014.3 |
| 20260831072736 | 20 | 10 | 1.6 | 1.6 | 0.00 | 0.00 | 0.00 | 80 | 1014.6 |
| 20260831072232 | 20 | 7 | 0.0 | 1.6 | 0.00 | 0.00 | 0.00 | 80 | 1014.6 |
| 20260831071732 | 20 | 359 | 0.0 | 0.0 | 0.00 | 0.00 | 0.00 | 80 | 1014.6 |
| 20260831071227 | 20 | 354 | 0.0 | 0.0 | 0.00 | 0.00 | 0.00 | 80 | 1014.6 |
| 20260831070721 | 20 | 346 | 0.0 | 0.0 | 0.00 | 0.00 | 0.00 | 81 | 1014.3 |
| 20260831070215 | 20 | 350 | 0.0 | 0.0 | 0.00 | 0.00 | 0.00 | 81 | 1014.6 |
| 20260831065714 | 20 | 342 | 0.0 | 0.0 | 0.00 | 0.00 | 0.00 | 81 | 1014.6 |
| 20260831065213 | 20 | 336 | 0.0 | 0.0 | 0.00 | 0.00 | 0.00 | 81 | 1014.6 |
| 20260831064708 | 20 | 347 | 0.0 | 1.6 | 0.00 | 0.00 | 0.00 | 81 | 1014.6 |
| 20260831064203 | 20 | 347 | 0.0 | 0.0 | 0.00 | 0.00 | 0.00 | 81 | 1014.6 |
| 20260831063659 | 20 | 346 | 0.0 | 0.0 | 0.00 | 0.00 | 0.00 | 81 | 1014.9 |
| 20260831063154 | 20 | 342 | 0.0 | 0.0 | 0.00 | 0.00 | 0.00 | 80 | 1014.6 |
| 20260831062649 | 20 | 345 | 0.0 | 0.0 | 0.00 | 0.00 | 0.00 | 80 | 1014.6 |
| 20260831062148 | 20 | 346 | 0.0 | 0.0 | 0.00 | 0.00 | 0.00 | 80 | 1014.3 |
| 20260831061646 | 21 | 343 | 0.0 | 1.6 | 0.00 | 0.00 | 0.00 | 80 | 1014.6 |
| 20260831061142 | 20 | 333 | 0.0 | 0.0 | 0.00 | 0.00 | 0.00 | 80 | 1014.6 |
| 20260831060638 | 21 | 338 | 0.0 | 0.0 | 0.00 | 0.00 | 0.00 | 80 | 1014.6 |
| 20260831060138 | 21 | 332 | 0.0 | 0.0 | 0.00 | 0.00 | 0.00 | 80 | 1014.3 |
| 20260831055637 | 21 | 341 | 0.0 | 1.6 | 0.00 | 0.00 | 0.00 | 80 | 1014.6 |
| 20260831055133 | 21 | 337 | 0.0 | 0.0 | 0.00 | 0.00 | 0.00 | 80 | 1014.6 |
| 20260831054632 | 21 | 336 | 0.0 | 0.0 | 0.00 | 0.00 | 0.00 | 80 | 1014.6 |
| 20260831054132 | 21 | 336 | 0.0 | 0.0 | 0.00 | 0.00 | 0.00 | 81 | 1014.6 |
| 20260831053627 | 21 | 334 | 0.0 | 0.0 | 0.00 | 0.00 | 0.00 | 81 | 1014.6 |
| 20260831053126 | 21 | 323 | 0.0 | 0.0 | 0.00 | 0.00 | 0.00 | 81 | 1014.6 |
| 20260831052625 | 21 | 314 | 0.0 | 1.6 | 0.00 | 0.00 | 0.00 | 81 | 1014.3 |
| 20260831052124 | 21 | 271 | 1.6 | 1.6 | 0.00 | 0.00 | 0.00 | 82 | 1014.3 |
| 20260831051622 | 21 | 314 | 1.6 | 3.2 | 0.00 | 0.00 | 0.00 | 82 | 1014.6 |
| 20260831051115 | 21 | 340 | 0.0 | 0.0 | 0.00 | 0.00 | 0.00 | 82 | 1014.6 |
| 20260831050610 | 21 | 314 | 1.6 | 3.2 | 0.00 | 0.00 | 0.00 | 82 | 1014.6 |
| 20260831050108 | 21 | 341 | 0.0 | 1.6 | 0.00 | 0.00 | 0.00 | 82 | 1014.6 |
| 20260831045603 | 21 | 305 | 0.0 | 1.6 | 0.00 | 0.00 | 0.00 | 82 | 1014.9 |
| 20260831045058 | 21 | 333 | 3.2 | 4.8 | 0.00 | 0.00 | 0.00 | 82 | 1014.6 |
| 20260831044553 | 21 | 266 | 1.6 | 3.2 | 0.00 | 0.00 | 0.00 | 82 | 1014.3 |
| 20260831044048 | 21 | 250 | 1.6 | 3.2 | 0.00 | 0.00 | 0.00 | 81 | 1014.3 |
| 20260831043543 | 21 | 306 | 1.6 | 3.2 | 0.00 | 0.00 | 0.00 | 81 | 1014.6 |
| 20260831043039 | 21 | 301 | 3.2 | 3.2 | 0.00 | 0.00 | 0.00 | 81 | 1014.6 |
| 20260831042538 | 21 | 293 | 1.6 | 4.8 | 0.00 | 0.00 | 0.00 | 81 | 1014.3 |
| 20260831042033 | 21 | 314 | 0.0 | 4.8 | 0.00 | 0.00 | 0.00 | 80 | 1014.3 |
| 20260831041528 | 21 | 323 | 1.6 | 4.8 | 0.00 | 0.00 | 0.00 | 79 | 1014.3 |
| 20260831041027 | 21 | 322 | 3.2 | 4.8 | 0.00 | 0.00 | 0.00 | 79 | 1014.6 |
| 20260831040522 | 21 | 34 | 3.2 | 3.2 | 0.00 | 0.00 | 0.00 | 78 | 1014.3 |
| 20260831040022 | 21 | 308 | 3.2 | 4.8 | 0.00 | 0.00 | 0.00 | 78 | 1014.3 |
| 20260831035519 | 21 | 230 | 4.8 | 6.4 | 0.00 | 0.00 | 0.00 | 78 | 1014.3 |
| 20260831035015 | 21 | 285 | 3.2 | 3.2 | 0.00 | 0.00 | 0.00 | 78 | 1013.9 |
| 20260831034509 | 21 | 347 | 0.0 | 3.2 | 0.00 | 0.00 | 0.00 | 77 | 1013.9 |
| 20260831034005 | 22 | 290 | 3.2 | 6.4 | 0.00 | 0.00 | 0.00 | 77 | 1013.9 |
| 20260831033500 | 22 | 325 | 0.0 | 1.6 | 0.00 | 0.00 | 0.00 | 77 | 1013.9 |
| 20260831032956 | 22 | 164 | 3.2 | 4.8 | 0.00 | 0.00 | 0.00 | 77 | 1013.6 |
| 20260831032455 | 22 | 304 | 1.6 | 3.2 | 0.00 | 0.00 | 0.00 | 77 | 1013.6 |
| 20260831031950 | 22 | 339 | 0.0 | 3.2 | 0.00 | 0.00 | 0.00 | 77 | 1013.6 |
| 20260831031450 | 22 | 314 | 1.6 | 4.8 | 0.00 | 0.00 | 0.00 | 78 | 1013.2 |
| 20260831030949 | 22 | 320 | 1.6 | 3.2 | 0.00 | 0.00 | 0.00 | 78 | 1013.6 |
| 20260831030449 | 22 | 267 | 3.2 | 4.8 | 0.00 | 0.00 | 0.00 | 78 | 1013.2 |
| 20260831025947 | 22 | 240 | 3.2 | 4.8 | 0.00 | 0.00 | 0.00 | 78 | 1013.2 |
| 20260831025446 | 22 | 248 | 3.2 | 6.4 | 0.00 | 0.00 | 0.00 | 78 | 1013.2 |
| 20260831024942 | 22 | 292 | 3.2 | 9.7 | 0.00 | 0.00 | 0.00 | 78 | 1013.6 |
| 20260831024442 | 22 | 253 | 3.2 | 4.8 | 0.00 | 0.00 | 0.00 | 78 | 1013.6 |
| 20260831023937 | 22 | 239 | 4.8 | 6.4 | 0.00 | 0.00 | 0.00 | 77 | 1013.2 |
| 20260831023435 | 22 | 272 | 3.2 | 3.2 | 0.00 | 0.00 | 0.00 | 77 | 1013.2 |
| 20260831022930 | 22 | 324 | 0.0 | 3.2 | 0.00 | 0.00 | 0.00 | 77 | 1013.2 |
| 20260831022429 | 22 | 259 | 3.2 | 3.2 | 0.00 | 0.00 | 0.00 | 77 | 1013.2 |
| 20260831021924 | 22 | 195 | 1.6 | 3.2 | 0.00 | 0.00 | 0.00 | 77 | 1013.2 |
| 20260831021424 | 22 | 343 | 0.0 | 1.6 | 0.00 | 0.00 | 0.00 | 77 | 1013.2 |
| 20260831020920 | 22 | 288 | 1.6 | 3.2 | 0.00 | 0.00 | 0.00 | 77 | 1013.2 |
| 20260831020419 | 23 | 340 | 3.2 | 6.4 | 0.00 | 0.00 | 0.00 | 76 | 1013.2 |
| 20260831015914 | 23 | 303 | 3.2 | 4.8 | 0.00 | 0.00 | 0.00 | 75 | 1013.2 |
| 20260831015410 | 23 | 274 | 3.2 | 3.2 | 0.00 | 0.00 | 0.00 | 75 | 1012.9 |
| 20260831014910 | 23 | 339 | 1.6 | 4.8 | 0.00 | 0.00 | 0.00 | 74 | 1012.9 |
| 20260831014405 | 23 | 222 | 6.4 | 6.4 | 0.00 | 0.00 | 0.00 | 74 | 1012.9 |
| 20260831013901 | 23 | 340 | 1.6 | 3.2 | 0.00 | 0.00 | 0.00 | 75 | 1013.2 |
| 20260831013356 | 23 | 294 | 1.6 | 3.2 | 0.00 | 0.00 | 0.00 | 74 | 1013.2 |
| 20260831012850 | 23 | 338 | 0.0 | 1.6 | 0.00 | 0.00 | 0.00 | 75 | 1013.2 |
| 20260831012345 | 23 | 323 | 1.6 | 4.8 | 0.00 | 0.00 | 0.00 | 75 | 1012.9 |
| 20260831011840 | 23 | 327 | 3.2 | 4.8 | 0.00 | 0.00 | 0.00 | 75 | 1013.2 |
| 20260831011335 | 24 | 233 | 6.4 | 6.4 | 0.00 | 0.00 | 0.00 | 75 | 1012.9 |
| 20260831010831 | 24 | 344 | 1.6 | 3.2 | 0.00 | 0.00 | 0.00 | 75 | 1013.2 |
| 20260831010330 | 23 | 343 | 0.0 | 1.6 | 0.00 | 0.00 | 0.00 | 76 | 1013.2 |
| 20260831005826 | 23 | 314 | 1.6 | 4.8 | 0.00 | 0.00 | 0.00 | 76 | 1013.2 |
| 20260831005321 | 23 | 281 | 4.8 | 9.7 | 0.00 | 0.00 | 0.00 | 76 | 1013.2 |
| 20260831004816 | 24 | 309 | 3.2 | 4.8 | 0.00 | 0.00 | 0.00 | 76 | 1013.2 |
| 20260831004312 | 24 | 236 | 3.2 | 6.4 | 0.00 | 0.00 | 0.00 | 77 | 1013.2 |
| 20260831003808 | 25 | 354 | 6.4 | 11.3 | 0.00 | 0.00 | 0.00 | 75 | 1013.2 |
| 20260831003304 | 25 | 347 | 3.2 | 4.8 | 0.00 | 0.00 | 0.00 | 73 | 1012.9 |
| 20260831002803 | 25 | 333 | 0.0 | 4.8 | 0.00 | 0.00 | 0.00 | 76 | 1013.2 |
| 20260831002305 | 24 | 300 | 3.2 | 9.7 | 0.00 | 0.00 | 0.00 | 77 | 1013.2 |
| 20260831001758 | 25 | 259 | 6.4 | 11.3 | 0.00 | 0.00 | 0.00 | 75 | 1013.2 |
| 20260831001253 | 25 | 228 | 6.4 | 9.7 | 0.00 | 0.00 | 0.00 | 73 | 1013.2 |
| 20260831000751 | 25 | 329 | 3.2 | 4.8 | 0.00 | 0.00 | 0.00 | 73 | 1013.2 |
| 20260831000250 | 25 | 321 | 3.2 | 11.3 | 0.00 | 0.00 | 0.00 | 76 | 1013.2 |